Weather History for Lake Charles, LA

Change the Weather History Date:

Sunday, October 27, 2013

  Actual Average Record
Temperature  
Mean Temperature 64 °F -  
Max Temperature 75 °F 76 °F 93 °F (2004)
Min Temperature 54 °F 60 °F 46 °F (2008)
Growing Degree Days 14 (Base 50)    
Moisture  
Dew Point 61 °F    
Average Humidity 96    
Maximum Humidity 100    
Minimum Humidity 69    
Precipitation  
Precipitation 0.00 in - - ()
Sea Level Pressure  
Sea Level Pressure 30.09 in    
Wind  
Wind Speed 2 mph (SE)    
Max Wind Speed 17 mph    
Max Gust Speed 30 mph    
Visibility 6 miles    
Events Fog , Rain    
Averages and records for this station are not official NWS values.
T = Trace of Precipitation, MM = Missing Value Source: NWS Daily Summary

Daily Weather History Graph

Daily Weather History Graph

Search for Another Location

Airport:

Trip Planner

Search our weather history database for the weather conditions in past years. The results will help you decide how hot, cold, wet, or windy it might be!

Date:

Astronomy

Oct. 27, 2013 Rise Set
Actual Time 7:23 AM CDT 6:29 PM CDT
Civil Twilight 6:58 AM CDT 6:53 PM CDT
Nautical Twilight 6:30 AM CDT 7:21 PM CDT
Astronomical Twilight 6:02 AM CDT 7:49 PM CDT
Moon 12:49 AM CDT (10/27) 2:12 PM CDT (10/27)
Length of Visible Light 11h 55m
Length of Day
11h 06m
Last Quarter, 43% of the Moon is Illuminated
Oct 27
Last Quarter
Nov 3
New
Nov 9
First Quarter
Nov 17
Full
Nov 25
Last Quarter

Hourly Weather History & Observations

Time (CDT) Temp. Dew Point Humidity Pressure Visibility Wind Dir Wind Speed Gust Speed Precip Events Conditions
12:15 AM 57.6 °F 57.6 °F 100% 30.14 in 0.2 mi Calm Calm - N/A Fog Fog
12:35 AM 57.4 °F 57.4 °F 100% 30.13 in 0.2 mi Calm Calm - N/A Fog Fog
12:55 AM 55.4 °F 55.4 °F 100% 30.12 in 0.2 mi ESE 3.5 mph - N/A Fog Fog
1:15 AM 54.7 °F 54.7 °F 100% 30.12 in 0.2 mi Calm Calm - N/A Fog Fog
1:35 AM 56.8 °F 56.8 °F 100% 30.11 in 1.8 mi Calm Calm - N/A   Mist
1:55 AM 57.6 °F 57.6 °F 100% 30.11 in 3.0 mi Calm Calm - N/A   Mist
2:15 AM 56.8 °F 56.8 °F 100% 30.11 in 2.5 mi Calm Calm - N/A   Mist
2:35 AM 57.4 °F 57.4 °F 100% 30.11 in 7.0 mi Calm Calm - N/A   Clear
2:55 AM 57.9 °F 57.9 °F 100% 30.10 in 7.0 mi Calm Calm - N/A   Scattered Clouds
3:15 AM 58.5 °F 58.5 °F 100% 30.10 in 5.0 mi Calm Calm - N/A   Scattered Clouds
3:35 AM 58.6 °F 58.6 °F 100% 30.10 in 5.0 mi East 4.6 mph - N/A   Scattered Clouds
3:55 AM 59.9 °F 59.9 °F 100% 30.11 in 7.0 mi North 3.5 mph - N/A   Scattered Clouds
4:15 AM 61.2 °F 61.2 °F 100% 30.12 in 7.0 mi North 3.5 mph - N/A   Overcast
4:35 AM 61.3 °F 61.3 °F 100% 30.10 in 7.0 mi NNE 4.6 mph - N/A   Overcast
4:55 AM 61.3 °F 61.3 °F 100% 30.10 in 10.0 mi NE 3.5 mph - N/A   Mostly Cloudy
5:15 AM 60.8 °F 60.8 °F 100% 30.10 in 10.0 mi NE 3.5 mph - N/A   Mostly Cloudy
5:35 AM 60.3 °F 60.3 °F 100% 30.10 in 10.0 mi Calm Calm - N/A   Scattered Clouds
5:55 AM 60.3 °F 60.3 °F 100% 30.10 in 10.0 mi NE 3.5 mph - N/A   Scattered Clouds
6:00 AM 60.8 °F 60.8 °F 100% 30.10 in 10.0 mi Calm Calm - N/A   Scattered Clouds
6:15 AM 59.9 °F 59.9 °F 100% 30.11 in 10.0 mi Calm Calm - N/A   Mostly Cloudy
6:35 AM 59.5 °F 59.5 °F 100% 30.12 in 10.0 mi NNW 3.5 mph - N/A   Scattered Clouds
6:50 AM 60.8 °F 60.8 °F 100% 30.12 in 10.0 mi Calm Calm - N/A   Scattered Clouds
6:55 AM 59.7 °F 59.7 °F 100% 30.12 in 10.0 mi Calm Calm - N/A   Clear
7:50 AM 60.8 °F 60.8 °F 100% 30.10 in 10.0 mi Calm Calm - N/A   Overcast
8:55 AM 60.8 °F 60.8 °F 100% 30.12 in 10.0 mi Calm Calm - N/A   Overcast
9:55 AM 62.6 °F 62.6 °F 100% 30.13 in 5.0 mi SE 3.5 mph - N/A Rain Light Rain
10:50 AM 64.4 °F 64.4 °F 100% 30.12 in 5.0 mi SSE 10.4 mph - N/A Rain Light Rain
11:50 AM 68.0 °F 68.0 °F 100% 30.06 in 10.0 mi SSE 17.3 mph 29.9 mph N/A   Mostly Cloudy
12:50 PM 71.6 °F 66.2 °F 83% 30.06 in 10.0 mi Calm Calm - N/A   Mostly Cloudy
1:50 PM 71.6 °F 66.2 °F 83% 30.05 in 10.0 mi South 5.8 mph - N/A   Mostly Cloudy
2:50 PM 73.4 °F 68.0 °F 83% 30.04 in 10.0 mi South 9.2 mph - N/A   Scattered Clouds
3:50 PM 75.2 °F 66.2 °F 73% 30.04 in 10.0 mi South 5.8 mph - N/A   Mostly Cloudy
4:50 PM 75.2 °F 64.4 °F 69% 30.03 in 10.0 mi SSW 9.2 mph - N/A   Scattered Clouds
5:50 PM 73.4 °F 66.2 °F 78% 30.02 in 10.0 mi SSW 9.2 mph - N/A   Scattered Clouds
6:50 PM 71.6 °F 66.2 °F 83% 30.05 in 10.0 mi SW 4.6 mph - N/A   Scattered Clouds
7:50 PM 66.2 °F 66.2 °F 100% 30.05 in 10.0 mi Calm Calm - N/A   Clear
8:50 PM 64.4 °F 64.4 °F 100% 30.05 in 10.0 mi Calm Calm - N/A   Clear
9:50 PM 62.6 °F 62.6 °F 100% 30.06 in 0.2 mi Calm Calm - N/A Fog Fog
10:55 PM 61.7 °F 61.7 °F 100% 30.07 in 0.2 mi Calm Calm - N/A Fog Fog
11:15 PM 62.8 °F 62.8 °F 100% 30.07 in 0.2 mi Calm Calm - N/A Fog Fog
11:35 PM 60.3 °F 60.3 °F 100% 30.07 in 0.2 mi SE 3.5 mph - N/A Fog Fog
11:55 PM 61.3 °F 61.3 °F 100% 30.07 in 0.2 mi Calm Calm - N/A Fog Fog